Aeroporto :
LOGIN :

Iscrizione | Disclaimer

   EN    FR    IT 

 










Sommario :    VFR   VFR Marginale   IFR   IFR Intensivo   IFR Molto Intensivo
Visibilità : 
Base nubi : 
>= 8 km
>= 3000ft
5 / 8 km
1000 / 3000 ft
1500m / 5 km
500 / 1000 ft
800 / 1500m
200 / 500 ft
< 800m
< 200 ft
Simboli :   Temporali  Nebbia  Neve Forte  Precipitazioni Forti  Vento > 20 kt
SIGMETs :   Varie  Temporali  Ghiacco  Turbolenza  Onda orograficha  Ceneri Vulcaniche







- Altitudine del aeroporto : 102 ft
- Codice IATA : CNG
- Carte del aeroporto


LFBG - Cognac

ULTIMO METAR :
  • 210000Z AUTO 09003KT 4200 BR NSC M03/M04 Q1007 NOSIG

METARs OBSOLETI :
  • 202330Z AUTO 09003KT 5000 BR NSC M03/M04 Q1007 NOSIG
  • 202300Z AUTO 11003KT 5000 BR NSC M02/M03 Q1007 NOSIG
  • 202230Z AUTO 00000KT 5000 BR NSC M02/M03 Q1007 NOSIG
  • 202200Z AUTO 00000KT 6000 NSC M03/M04 Q1007 NOSIG
  • 202130Z AUTO 00000KT 6000 NSC M03/M04 Q1006 NOSIG

TAF TAF LFBG
Valido dal 20 a 21 ore il 21 a 21 ore UTC


202000Z 2021/2121 09005KT CAVOK
PROB40
TEMPO 2022/2108 3000 BR
Nessun NOTAM noto per questo aeroporto.



MetMap, La meteo Aeronautica in un colpo d'occhio ! - Copyright ORBIFLY Dicembre 2007 - Disclaimer

ORBIFLY MET'MAP TEAM :

Programmazione e sviluppo : Alexandra Zaïnal
Concezione e sviluppo : Baudouin d'Aumeries
Co-Programmazione e sviluppo : Marc-Olivier Méhu
Supporto tecnico e logistico : Manuel Goepfert
Aiuto per la traduzione : Arnaldo La Scala

Contatto : metmap@orbifly.com




FONTI E CREDITI :

   NOAA